TimeCST,TemperatureF,Dew PointF,Humidity,Sea Level PressureIn,VisibilityMPH,Wind Direction,Wind SpeedMPH,Gust SpeedMPH,PrecipitationIn,Events,Conditions,WindDirDegrees,DateUTC
12:16 AM,28.4,14.0,55,30.01,10.0,North,9.2,-,N/A,,Clear,350,2012-12-10 06:16:00
12:35 AM,28.4,15.8,59,30.01,10.0,NNW,9.2,18.4,N/A,,Clear,330,2012-12-10 06:35:00
12:55 AM,28.4,15.8,59,30.00,10.0,NNW,12.7,16.1,N/A,,Clear,330,2012-12-10 06:55:00
1:35 AM,26.6,14.0,59,29.99,10.0,NNW,11.5,-,N/A,,Clear,340,2012-12-10 07:35:00
1:55 AM,26.6,14.0,59,29.99,10.0,NNW,12.7,18.4,N/A,,Clear,340,2012-12-10 07:55:00
2:15 AM,26.6,14.0,59,29.97,10.0,North,8.1,-,N/A,,Clear,350,2012-12-10 08:15:00
2:55 AM,26.6,14.0,59,30.00,10.0,NNW,11.5,18.4,N/A,,Partly Cloudy,340,2012-12-10 08:55:00
3:15 AM,26.6,14.0,59,29.98,10.0,North,13.8,17.3,N/A,,Partly Cloudy,350,2012-12-10 09:15:00
3:55 AM,24.8,14.0,64,30.00,10.0,NNW,9.2,-,N/A,,Mostly Cloudy,340,2012-12-10 09:55:00
4:15 AM,24.8,15.8,69,29.99,10.0,NNW,11.5,16.1,N/A,,Overcast,330,2012-12-10 10:15:00
4:35 AM,24.8,14.0,64,29.99,10.0,NW,16.1,19.6,N/A,,Overcast,320,2012-12-10 10:35:00
4:55 AM,24.8,14.0,64,29.99,10.0,NNW,11.5,-,N/A,,Overcast,330,2012-12-10 10:55:00
4:56 AM,24.8,14.0,64,29.99,10.0,NNW,11.5,-,N/A,,Overcast,330,2012-12-10 10:56:00
5:15 AM,24.8,14.0,64,30.00,10.0,NNW,10.4,-,N/A,,Mostly Cloudy,340,2012-12-10 11:15:00
5:35 AM,24.8,14.0,64,30.00,10.0,NNW,12.7,19.6,N/A,,Overcast,340,2012-12-10 11:35:00
5:55 AM,24.8,14.0,64,30.01,10.0,NNW,10.4,16.1,N/A,,Overcast,340,2012-12-10 11:55:00
6:15 AM,24.8,14.0,64,30.03,10.0,NW,11.5,-,N/A,,Overcast,310,2012-12-10 12:15:00
6:35 AM,24.8,12.2,59,30.04,10.0,NW,10.4,-,N/A,,Overcast,310,2012-12-10 12:35:00
6:55 AM,24.8,12.2,59,30.04,10.0,NW,9.2,-,N/A,,Overcast,320,2012-12-10 12:55:00
7:15 AM,24.8,14.0,64,30.05,10.0,NW,10.4,18.4,N/A,,Overcast,310,2012-12-10 13:15:00
7:35 AM,24.8,14.0,64,30.06,10.0,NW,13.8,19.6,N/A,,Overcast,320,2012-12-10 13:35:00
7:56 AM,24.8,14.0,64,30.06,10.0,NW,11.5,-,N/A,,Overcast,310,2012-12-10 13:56:00
8:15 AM,24.8,12.2,59,30.06,10.0,NNW,12.7,-,N/A,,Overcast,330,2012-12-10 14:15:00
8:35 AM,24.8,14.0,64,30.05,10.0,NW,9.2,-,N/A,,Overcast,320,2012-12-10 14:35:00
8:56 AM,24.8,14.0,64,30.05,10.0,NNW,8.1,-,N/A,,Overcast,330,2012-12-10 14:56:00
9:15 AM,24.8,15.8,69,30.05,10.0,NW,9.2,-,N/A,,Overcast,310,2012-12-10 15:15:00
9:35 AM,24.8,15.8,69,30.05,10.0,NNW,8.1,-,N/A,,Overcast,340,2012-12-10 15:35:00
10:15 AM,26.6,15.8,64,30.05,10.0,NW,9.2,-,N/A,,Overcast,310,2012-12-10 16:15:00
10:35 AM,26.6,15.8,64,30.04,10.0,NNW,4.6,-,N/A,,Overcast,330,2012-12-10 16:35:00
10:55 AM,28.4,17.6,64,30.05,10.0,NW,9.2,-,N/A,,Overcast,320,2012-12-10 16:55:00
11:16 AM,26.6,17.6,69,30.05,10.0,NW,8.1,-,N/A,,Mostly Cloudy,310,2012-12-10 17:16:00
11:35 AM,28.4,17.6,64,30.05,10.0,NW,10.4,-,N/A,,Overcast,320,2012-12-10 17:35:00
11:55 AM,28.4,17.6,64,30.05,10.0,NNW,6.9,-,N/A,,Mostly Cloudy,330,2012-12-10 17:55:00
12:55 PM,30.2,19.4,64,30.01,10.0,North,6.9,-,N/A,,Partly Cloudy,350,2012-12-10 18:55:00
1:15 PM,30.2,19.4,64,30.01,10.0,NNW,9.2,-,N/A,,Partly Cloudy,340,2012-12-10 19:15:00
1:35 PM,32.0,19.4,60,30.01,10.0,NW,6.9,-,N/A,,Clear,320,2012-12-10 19:35:00
1:55 PM,32.0,19.4,60,30.01,10.0,NW,8.1,-,N/A,,Clear,320,2012-12-10 19:55:00
2:15 PM,33.8,17.6,52,30.00,10.0,North,6.9,-,N/A,,Clear,350,2012-12-10 20:15:00
2:36 PM,33.8,17.6,52,30.01,10.0,NW,5.8,-,N/A,,Clear,310,2012-12-10 20:36:00
2:55 PM,33.8,17.6,52,30.00,10.0,WNW,8.1,-,N/A,,Clear,300,2012-12-10 20:55:00
3:15 PM,33.8,17.6,52,30.01,10.0,NW,4.6,-,N/A,,Clear,320,2012-12-10 21:15:00
3:55 PM,33.8,17.6,52,30.01,10.0,WNW,10.4,-,N/A,,Clear,300,2012-12-10 21:55:00
4:15 PM,32.0,17.6,55,30.00,10.0,WNW,8.1,-,N/A,,Clear,290,2012-12-10 22:15:00
4:36 PM,32.0,17.6,55,30.00,10.0,WNW,6.9,-,N/A,,Clear,300,2012-12-10 22:36:00
4:55 PM,30.2,17.6,60,30.01,10.0,WNW,8.1,-,N/A,,Clear,300,2012-12-10 22:55:00
5:16 PM,28.4,17.6,64,30.01,10.0,WNW,6.9,-,N/A,,Clear,290,2012-12-10 23:16:00
5:35 PM,28.4,17.6,64,30.02,10.0,WNW,8.1,-,N/A,,Clear,290,2012-12-10 23:35:00
5:55 PM,28.4,17.6,64,30.03,10.0,WNW,5.8,-,N/A,,Clear,290,2012-12-10 23:55:00
6:16 PM,26.6,17.6,69,30.03,10.0,WNW,5.8,-,N/A,,Clear,300,2012-12-11 00:16:00
6:35 PM,26.6,17.6,69,30.04,10.0,WNW,4.6,-,N/A,,Clear,290,2012-12-11 00:35:00
7:35 PM,24.8,15.8,69,30.04,10.0,Calm,Calm,-,N/A,,Clear,0,2012-12-11 01:35:00
7:55 PM,24.8,15.8,69,30.03,10.0,SSE,4.6,-,N/A,,Clear,160,2012-12-11 01:55:00
8:15 PM,21.2,17.6,86,30.03,10.0,Calm,Calm,-,N/A,,Clear,0,2012-12-11 02:15:00
8:36 PM,23.0,15.8,74,30.04,10.0,Calm,Calm,-,N/A,,Clear,0,2012-12-11 02:36:00
8:55 PM,23.0,17.6,80,30.05,10.0,Calm,Calm,-,N/A,,Clear,0,2012-12-11 02:55:00
9:15 PM,21.2,15.8,80,30.05,10.0,Calm,Calm,-,N/A,,Clear,0,2012-12-11 03:15:00
9:35 PM,23.0,17.6,80,30.05,10.0,Calm,Calm,-,N/A,,Clear,0,2012-12-11 03:35:00
9:55 PM,21.2,17.6,86,30.05,10.0,Calm,Calm,-,N/A,,Clear,0,2012-12-11 03:55:00
10:15 PM,21.2,15.8,80,30.05,10.0,Calm,Calm,-,N/A,,Clear,0,2012-12-11 04:15:00
10:35 PM,21.2,17.6,86,30.05,10.0,Calm,Calm,-,N/A,,Clear,0,2012-12-11 04:35:00
11:15 PM,19.4,15.8,86,30.06,10.0,Calm,Calm,-,N/A,,Clear,0,2012-12-11 05:15:00
11:35 PM,19.4,15.8,86,30.07,10.0,South,3.5,-,N/A,,Clear,180,2012-12-11 05:35:00
11:56 PM,21.2,15.8,80,30.07,10.0,Calm,Calm,-,N/A,,Clear,0,2012-12-11 05:56:00